Milton, FL

1:58 AM CST on November 23, 2017 (GMT -0600)
Whiting Field Naval Air Station (South)

Weather History for KNDZ - December, 2013

Change the Weather History Date:

Saturday, December 14, 2013

  Actual Average (KNSE) Record (KNSE)
Temperature  
Mean Temperature 64 °F -  
Max Temperature 73 °F 59 °F 73 °F (2007)
Min Temperature 54 °F 41 °F 28 °F (2010)
Degree Days  
Heating Degree Days 2    
Growing Degree Days 14 (Base 50)    
Moisture  
Dew Point 60 °F    
Average Humidity 83    
Maximum Humidity 90    
Minimum Humidity 70    
Precipitation  
Precipitation 0.12 in - - ()
Sea Level Pressure  
Sea Level Pressure 29.90 in    
Wind  
Wind Speed 8 mph (South)    
Max Wind Speed 14 mph    
Max Gust Speed 23 mph    
Visibility 9 miles    
Events Rain    
Averages and records for this station are not official NWS values.
T = Trace of Precipitation, MM = Missing Value Source: NWS Daily Summary

Daily Weather History Graph

Daily Weather History Graph

Search for Another Location

Airport or City:

Trip Planner

Search our weather history database for the weather conditions in past years. The results will help you decide how hot, cold, wet, or windy it might be!

Date:

Astronomy

Dec. 14, 2013 Rise Set
Actual Time 6:37 AM CST 4:48 PM CST
Civil Twilight 6:10 AM CST 5:14 PM CST
Nautical Twilight 5:40 AM CST 5:44 PM CST
Astronomical Twilight 5:11 AM CST 6:14 PM CST
Moon 3:03 PM CST (12/14) 4:04 AM CST (12/14)
Length of Visible Light 11h 03m
Length of Day
10h 10m
Waxing Gibbous, 94% of the Moon is Illuminated
Dec 14
Waxing Gibbous
Dec 17
Full
Dec 25
Last Quarter
Jan 1
New
Jan 7
First Quarter

Hourly Weather History & Observations

Time (CST) Temp. Dew Point Humidity Pressure Visibility Wind Dir Wind Speed Gust Speed Precip Events Conditions
12:56 AM 54.0 °F 45.0 °F 72% 29.99 in 10.0 mi East 8.1 mph - N/A   Mostly Cloudy
1:56 AM 55.9 °F 46.9 °F 72% 29.97 in 10.0 mi East 8.1 mph - N/A   Overcast
2:56 AM 55.9 °F 48.0 °F 75% 29.94 in 10.0 mi ESE 9.2 mph - N/A   Overcast
3:56 AM 57.9 °F 51.1 °F 78% 29.92 in 10.0 mi ESE 8.1 mph - N/A   Overcast
4:20 AM 59.0 °F 52.0 °F 78% 29.96 in 10.0 mi ESE 6.9 mph - N/A   Overcast
4:27 AM 59.0 °F 52.0 °F 78% 29.96 in 10.0 mi ESE 5.8 mph - N/A   Overcast
4:56 AM 57.9 °F 53.1 °F 84% 29.91 in 10.0 mi ESE 6.9 mph - N/A   Overcast
5:22 AM 57.9 °F 53.1 °F 84% 29.94 in 10.0 mi ESE 13.8 mph - N/A   Overcast
5:34 AM 59.0 °F 54.0 °F 83% 29.95 in 10.0 mi West 5.8 mph - N/A   Overcast
5:56 AM 59.0 °F 54.0 °F 83% 29.91 in 10.0 mi SE 3.5 mph - N/A   Overcast
6:30 AM 60.1 °F 55.9 °F 86% 29.93 in 10.0 mi SE 8.1 mph - N/A   Overcast
6:53 AM 60.8 °F 55.4 °F 82% 29.93 in 10.0 mi SE 6.9 mph - N/A   Overcast
6:56 AM 60.1 °F 55.9 °F 86% 29.90 in 10.0 mi SE 6.9 mph - N/A   Overcast
7:56 AM 64.0 °F 59.0 °F 84% 29.89 in 10.0 mi SSE 4.6 mph - N/A   Overcast
8:29 AM 66.0 °F 61.0 °F 84% 29.93 in 10.0 mi SSE 5.8 mph - N/A   Mostly Cloudy
8:56 AM 68.0 °F 62.6 °F 83% 29.93 in 8.0 mi South 9.2 mph - N/A   Overcast
9:20 AM 70.0 °F 64.9 °F 84% 29.93 in 8.0 mi South 12.7 mph - N/A   Overcast
9:24 AM 70.0 °F 64.9 °F 84% 29.93 in 6.0 mi South 11.5 mph - 0.00 in Rain Light Rain
9:28 AM 70.0 °F 66.0 °F 87% 29.93 in 4.0 mi South 10.4 mph - 0.00 in Rain Light Rain
9:37 AM 70.0 °F 66.0 °F 87% 29.92 in 7.0 mi South 12.7 mph - 0.02 in Rain Rain
9:56 AM 70.0 °F 66.9 °F 90% 29.88 in 8.0 mi South 11.5 mph 20.7 mph 0.02 in   Overcast
10:02 AM 70.0 °F 66.9 °F 90% 29.92 in 8.0 mi South 11.5 mph 20.7 mph 0.01 in Rain Rain
10:56 AM 71.1 °F 68.0 °F 90% 29.86 in 7.0 mi SSW 12.7 mph 20.7 mph 0.03 in Rain Light Rain
11:19 AM 72.0 °F 68.0 °F 87% 29.89 in 10.0 mi WSW 6.9 mph 23.0 mph 0.01 in Rain Light Rain
11:32 AM 72.0 °F 68.0 °F 87% 29.88 in 10.0 mi SSW 9.2 mph - 0.01 in   Overcast
11:47 AM 72.0 °F 68.0 °F 87% 29.87 in 10.0 mi SSW 13.8 mph 23.0 mph 0.01 in   Mostly Cloudy
11:56 AM 73.0 °F 69.1 °F 87% 29.83 in 10.0 mi SSW 9.2 mph 23.0 mph 0.01 in   Mostly Cloudy
12:08 PM 73.0 °F 69.1 °F 87% 29.86 in 10.0 mi SSW 10.4 mph 17.3 mph N/A   Mostly Cloudy
12:46 PM 73.0 °F 66.9 °F 81% 29.85 in 10.0 mi WSW 5.8 mph - 0.00 in   Scattered Clouds
12:56 PM 73.0 °F 66.9 °F 81% 29.81 in 10.0 mi Variable 4.6 mph - 0.00 in   Partly Cloudy
1:56 PM 73.9 °F 64.9 °F 73% 29.81 in 10.0 mi WSW 6.9 mph - N/A   Mostly Cloudy
2:56 PM 73.0 °F 63.0 °F 71% 29.81 in 10.0 mi Variable 4.6 mph - N/A   Mostly Cloudy
3:56 PM 71.1 °F 64.0 °F 78% 29.82 in 10.0 mi Calm Calm - N/A   Clear
4:56 PM 69.1 °F 63.0 °F 81% 29.82 in 10.0 mi SSW 3.5 mph - N/A   Partly Cloudy
5:56 PM 68.0 °F 63.0 °F 84% 29.83 in 10.0 mi Calm Calm - N/A   Scattered Clouds
6:56 PM 66.9 °F 63.0 °F 87% 29.85 in 10.0 mi NW 6.9 mph - N/A   Overcast
7:56 PM 66.0 °F 60.1 °F 81% 29.88 in 10.0 mi NW 8.1 mph - N/A   Overcast
8:56 PM 66.0 °F 55.9 °F 70% 29.92 in 10.0 mi NW 9.2 mph - N/A   Overcast
9:56 PM 60.1 °F 55.0 °F 83% 29.88 in 10.0 mi Calm Calm - 0.04 in Rain Light Rain
10:56 PM 59.0 °F 55.9 °F 90% 29.88 in 10.0 mi West 3.5 mph - 0.01 in Rain Light Rain
11:56 PM 59.0 °F 55.9 °F 90% 29.88 in 10.0 mi Calm Calm - 0.01 in   Overcast